Burbank, CA

5:49 PM PDT on May 24, 2017 (GMT -0700)
Burbank-Glendale-Pasadena

Weather History for KBUR - December, 2012

Change the Weather History Date:

Saturday, December 29, 2012

  Actual Average Record
Temperature  
Mean Temperature 45 °F 54 °F  
Max Temperature 51 °F 67 °F 84 °F (1963)
Min Temperature 38 °F 41 °F 30 °F (1971)
Degree Days  
Heating Degree Days 20 11  
Month to date heating degree days 295 313  
Since 1 July heating degree days 420 541  
Cooling Degree Days 0 0  
Month to date cooling degree days 0 0  
Year to date cooling degree days 1672 1245  
Moisture  
Dew Point 35 °F    
Average Humidity 73    
Maximum Humidity 86    
Minimum Humidity 60    
Precipitation  
Precipitation 0.32 in 0.11 in 5.30 in (1965)
Month to date precipitation 1.91 2.19  
Year to date precipitation 8.28 17.10  
Since 1 July precipitation 2.80  
Sea Level Pressure  
Sea Level Pressure 30.03 in    
Wind  
Wind Speed 4 mph (South)    
Max Wind Speed 15 mph    
Max Gust Speed 18 mph    
Visibility 9 miles    
Events Rain , Thunderstorm    
T = Trace of Precipitation, MM = Missing Value Source: NWS Daily Summary

Daily Weather History Graph

Daily Weather History Graph

Search for Another Location

Airport or City:

Trip Planner

Search our weather history database for the weather conditions in past years. The results will help you decide how hot, cold, wet, or windy it might be!

Date:

Astronomy

Dec. 29, 2012 Rise Set
Actual Time 6:58 AM PST 4:52 PM PST
Civil Twilight 6:31 AM PST 5:20 PM PST
Nautical Twilight 5:59 AM PST 5:52 PM PST
Astronomical Twilight 5:29 AM PST 6:22 PM PST
Moon 6:25 PM PST (12/29) 7:39 AM PST (12/29)
Length of Visible Light 10h 49m
Length of Day
9h 54m
Full, 98% of the Moon is Illuminated
Dec 29
Full
Jan 4
Last Quarter
Jan 11
New
Jan 18
First Quarter
Jan 26
Full

Hourly Weather History & Observations

Time (PST) Temp. Windchill Dew Point Humidity Pressure Visibility Wind Dir Wind Speed Gust Speed Precip Events Conditions
12:53 AM 43.0 °F 41.3 °F 32.0 °F 65% 30.06 in 10.0 mi NNW 3.5 mph - N/A   Clear
1:53 AM 43.0 °F 40.3 °F 30.0 °F 60% 30.06 in 10.0 mi North 4.6 mph - N/A   Clear
2:53 AM 41.0 °F - 28.9 °F 62% 30.05 in 10.0 mi Calm Calm - N/A   Clear
3:53 AM 39.0 °F 35.7 °F 30.0 °F 70% 30.04 in 10.0 mi North 4.6 mph - N/A   Clear
4:53 AM 39.0 °F - 28.9 °F 67% 30.04 in 10.0 mi Calm Calm - N/A   Clear
5:27 AM 39.2 °F - 28.4 °F 65% 30.05 in 10.0 mi Calm Calm - N/A   Mostly Cloudy
5:38 AM 39.2 °F 37.0 °F 28.4 °F 65% 30.05 in 10.0 mi SW 3.5 mph - N/A   Overcast
5:53 AM 39.9 °F - 30.0 °F 68% 30.04 in 10.0 mi Calm Calm - N/A   Overcast
6:00 AM 39.2 °F - 30.2 °F 70% 30.05 in 10.0 mi Calm Calm - N/A   Overcast
6:21 AM 39.2 °F - 30.2 °F 70% 30.05 in 10.0 mi Calm Calm - N/A   Mostly Cloudy
6:40 AM 41.0 °F - 30.2 °F 65% 30.05 in 10.0 mi Calm Calm - N/A   Overcast
6:53 AM 42.1 °F - 30.0 °F 62% 30.04 in 10.0 mi Calm Calm - N/A   Overcast
7:53 AM 45.0 °F - 32.0 °F 60% 30.04 in 10.0 mi Calm Calm - N/A   Overcast
8:00 AM 44.6 °F - 32.0 °F 61% 30.05 in 10.0 mi Calm Calm - N/A   Overcast
8:29 AM 42.8 °F 40.1 °F 33.8 °F 70% 30.06 in 7.0 mi West 4.6 mph - 0.01 in Rain Light Rain
8:30 AM 42.8 °F 40.1 °F 33.8 °F 70% 30.06 in 5.0 mi West 4.6 mph - 0.01 in Rain Rain
8:31 AM 42.8 °F 40.1 °F 33.8 °F 70% 30.06 in 5.0 mi WSW 4.6 mph - 0.01 in Rain Rain
8:33 AM 42.8 °F 40.1 °F 35.6 °F 76% 30.07 in 4.0 mi Variable 4.6 mph - 0.02 in Rain Rain
8:42 AM 42.8 °F 38.6 °F 35.6 °F 76% 30.08 in 4.0 mi South 6.9 mph - 0.04 in Rain , Thunderstorm Thunderstorms and Rain
8:53 AM 42.1 °F 39.2 °F 36.0 °F 79% 30.07 in 2.5 mi East 4.6 mph - 0.10 in Rain , Thunderstorm Heavy Thunderstorms and Rain
9:18 AM 42.8 °F 41.1 °F 37.4 °F 81% 30.08 in 4.0 mi East 3.5 mph - 0.09 in Rain Rain
9:53 AM 44.1 °F 38.6 °F 37.9 °F 79% 30.06 in 6.0 mi SE 10.4 mph - 0.12 in Rain Rain
10:53 AM 45.0 °F - 37.9 °F 76% 30.05 in 8.0 mi Calm Calm - 0.02 in Rain Rain
11:53 AM 46.0 °F 44.8 °F 42.1 °F 86% 30.00 in 10.0 mi SSE 3.5 mph - 0.08 in Rain Light Rain
12:53 PM 50.0 °F - 41.0 °F 71% 29.97 in 10.0 mi SSE 6.9 mph - 0.00 in   Overcast
1:53 PM 51.1 °F - 41.0 °F 68% 29.96 in 10.0 mi SE 8.1 mph - N/A   Overcast
2:53 PM 50.0 °F - 41.0 °F 71% 29.96 in 10.0 mi SE 10.4 mph - N/A   Mostly Cloudy
3:53 PM 50.0 °F - 39.9 °F 68% 29.96 in 10.0 mi SE 8.1 mph - N/A   Overcast
4:53 PM 50.0 °F - 39.9 °F 68% 29.96 in 10.0 mi South 3.5 mph - N/A   Overcast
5:53 PM 50.0 °F - 41.0 °F 71% 29.98 in 10.0 mi NNW 3.5 mph - N/A   Overcast
6:53 PM 48.9 °F - 42.1 °F 77% 29.98 in 10.0 mi Calm Calm - N/A   Mostly Cloudy
7:53 PM 46.9 °F - 41.0 °F 80% 29.98 in 10.0 mi Calm Calm - N/A   Partly Cloudy
8:53 PM 45.0 °F 42.6 °F 39.0 °F 80% 29.99 in 10.0 mi Variable 4.6 mph - N/A   Clear
9:53 PM 43.0 °F 39.5 °F 37.9 °F 82% 30.00 in 10.0 mi WNW 5.8 mph - N/A   Clear
10:53 PM 42.1 °F 40.2 °F 37.0 °F 82% 29.99 in 10.0 mi North 3.5 mph - N/A   Clear
11:53 PM 41.0 °F - 36.0 °F 82% 29.99 in 10.0 mi Calm Calm - N/A   Clear